Date,TemperatureHighF,TemperatureAvgF,TemperatureLowF,DewpointHighF,DewpointAvgF,DewpointLowF,HumidityHigh,HumidityAvg,HumidityLow,PressureMaxIn,PressureMinIn,WindSpeedMaxMPH,WindSpeedAvgMPH,GustSpeedMaxMPH,PrecipitationSumIn
2012-12-1,66.3,49.6,40.4,40.9,34.4,27.9,67,56,38,30.32,30.19,9,0,9,0.00
2012-12-2,56.1,53.5,50.7,54.9,46.8,38.5,96,79,61,30.21,30.07,13,1,13,0.33
2012-12-3,66.5,57.8,55.7,59.8,54.9,52.1,96,91,74,30.20,30.12,9,0,9,0.06
2012-12-4,60.8,54.9,41.7,55.8,49.2,38.4,89,81,69,30.18,30.01,12,2,12,0.55
2012-12-5,58.6,40.2,28.2,40.2,31.1,17.2,94,73,36,30.35,30.18,4,0,8,0.00
2012-12-6,54.8,37.1,25.3,35.0,24.6,16.1,72,61,41,30.33,30.02,4,0,4,0.02
2012-12-7,51.8,49.1,43.1,49.7,46.2,34.2,96,90,71,30.02,29.87,3,0,3,0.96
2012-12-8,54.3,51.6,44.7,53.1,50.1,42.0,96,95,91,30.07,29.85,7,0,7,0.06
2012-12-9,57.3,47.7,41.3,56.2,45.0,38.3,96,90,84,30.09,29.70,10,0,10,0.12
2012-12-10,58.1,45.3,33.2,56.9,43.5,30.4,96,93,89,29.90,29.64,13,1,13,0.63
2012-12-11,41.9,33.6,28.4,31.2,27.2,21.2,89,78,57,30.25,29.89,8,0,8,0.03
2012-12-12,58.4,33.1,22.8,29.8,20.0,7.3,81,62,19,30.42,30.25,4,0,4,0.00
2012-12-13,29.1,27.6,26.2,15.7,15.2,14.5,61,59,57,30.40,30.38,0,0,0,0.00
2012-12-14,63.5,40.9,28.5,30.7,20.5,6.7,67,47,19,30.32,30.19,5,0,5,0.00
2012-12-15,49.4,42.5,35.7,34.7,26.3,19.1,63,53,46,30.20,29.85,5,0,5,0.02
2012-12-16,59.1,54.6,49.4,49.8,44.8,34.8,82,70,54,29.85,29.69,9,1,9,0.00
2012-12-17,55.0,50.1,43.3,51.6,46.8,41.0,96,88,82,29.76,29.55,12,0,12,0.97
2012-12-18,49.4,40.1,37.5,43.1,34.7,29.2,96,82,55,29.85,29.56,10,1,10,0.00
2012-12-19,51.4,41.7,37.4,40.0,34.3,31.3,84,75,60,30.13,29.78,9,1,9,0.00
2012-12-20,47.6,41.5,35.0,44.1,35.3,24.4,89,79,64,30.08,29.38,26,2,26,0.64
2012-12-21,35.0,33.0,31.2,25.1,22.8,21.0,70,66,63,29.51,29.47,21,7,21,0.00
2012-12-23,53.7,35.7,21.3,28.8,21.4,14.0,74,57,36,30.02,29.93,21,0,21,0.02
2012-12-24,34.1,29.6,26.2,28.0,21.3,17.4,79,71,65,30.01,29.77,0,0,0,0.14
2012-12-25,35.4,33.3,32.1,31.3,26.5,24.4,86,76,73,30.19,30.11,6,0,6,0.00
2012-12-26,35.4,32.3,27.6,31.7,27.1,23.4,88,81,73,30.11,29.54,5,0,5,0.31
2012-12-27,36.5,27.2,24.8,28.0,21.7,20.1,85,80,66,30.17,29.76,13,1,13,0.00
2012-12-28,37.7,30.3,26.9,29.0,23.1,20.8,82,75,64,30.18,29.89,3,0,3,0.02
2012-12-29,34.1,28.9,25.3,27.6,23.3,20.1,84,79,71,30.08,29.70,0,0,0,0.00
2012-12-30,39.5,24.7,19.7,23.3,16.0,10.9,81,70,44,30.41,30.08,9,1,9,0.00
2012-12-31,31.8,26.1,19.2,27.1,19.2,11.3,83,75,63,30.35,30.05,21,1,21,0.00